Torna al catalogo

COSMOS 1124 DEB

AttivoHEO
NORAD 32982·DEBRIS·🇷🇺 Russia

Lanciato Aug 28, 1979 da Plesetsk Cosmodrome

Loading…

Prossimi Passaggi (prossime 24 ore)

TLE

AggiornatoSource: Space-Track

Epoca: Sep 8, 2026, 03:00 UTC

1 32982U 79077H   26251.12553649  .00000176  00000-0  00000-0 0  9999
2 32982  65.4756 170.5080 6650870 328.7908   4.8277  2.09816240222656

Traccia COSMOS 1124 DEB in tempo reale con AllMySat

Download on the App Store